Showing default

ORBASTRO-TR5, 63236

Orbit data source: Space-Track

ORBASTRO-TR5, 63236 is a UK payload satellite in SSO that was launched on Sat, 15 Mar 2025 UTC via an FALCON 9 launch vehicle from the Air Force Western Test Range (AFWTR). Payload-class satellites include a variety of spacecraft equipped with specific instruments for various scientific and technological missions. These include communications satellites like Starlink; space stations such as the ISS; scientific satellites like the Hubble; Earth observation satellites from companies like Planet Labs, Umbra, and HawkEye 360; GPS; miniature CubeSats for education and research; and military/defense satellites.

Loading next visibility...
Identifier
63236, 2025-052AC
Orbit
SSO
Last TLE update
13 hours ago
Origin
Manufacturer
OrbAstro
Mission
Operational Commercial Technology
Bus & Motor
CUBESAT 6U, Unknown motor
Mass
~10 kg wet, ~10 kg dry
Launch date (UTC)
2025-03-15 (4 months ago)
Launch vehicle
FALCON 9
Launch site
Air Force Western Test Range (AFWTR)
Object type
Payload
Rocket body
Debris
Shape & HBR
Box, 0.1 m
Radar Cross Section
0.035 m², Small (<0.1 m²)

Expand to show TLE details & history

TLE from 13 hours ago
0 ORBASTRO-TR5
1 63236U 25052AC  25199.44869783  .00003541  00000-0  17939-3 0  9994
2 63236  97.4242  92.3415 0006048 246.9961 113.0635 15.17610262 19122
Epoch: 2025-07-18T10:46Z
TLE epoch observation values (Epoch: 2025-07-18T10:46:07.492Z)
Latitude
-0.00004°
Longitude
-5.68972°
Altitude
517.787 km
Speed
7.604 km/s
True Right ascension
06h 09m 21s
True Declination
0° 00' 00"
Sunlit
Object was in daylight at epoch
Visualization orbit readout
Latitude
66.78451°
Longitude
-22.74619°
Altitude
528.786 km
Speed
7.603 km/s
Apparent Right ascension
02h 03m 10s
Apparent Declination
19° 14' 37"
Sunlit
Object is in daylight
Visualization observer readout
Local Sidereal Time
12:31:13
Azimuth
335.539° NNW
Elevation
-27.074°
Doppler factor
1
Orbital elements
Apogee altitude
514.201 km
Perigee altitude
505.869 km
Semi-major axis
6,888.172 km
Eccentricity
0.0006
Inclination
97.4242°
RAAN
92.3415°
Arg. of periapsis
246.9961°
True anomaly
113.12725°
Mean anomaly
113.0635°
Eccentric anomaly
113.09538°
Mean motion
3.79653 °/min
Orbital period
94.82 mins
BSTAR
0.00017939
Loading maneuver chart data...
Loading SW <> Apogee altitude chart data...
Loading historical data...
Loading historical data...
Loading historical data...
Loading historical data...
Loading historical data...
Loading historical data...
Loading historical data...
|